{"data":{"norad_id":60284,"intl_designator":"2024-132G","name":"STARLINK-32123","alt_names":[],"object_type":"PAYLOAD","status":"ACTIVE","operator":null,"country":"US","launch_date":"2024-07-28","launch_site_code":"AFETR","launch_vehicle":null,"mission":null,"orbit_class":"UNKNOWN","rcs_meters":null,"size_class":null,"mass_kg":null,"dimensions":null,"purposes":["comms"],"wikipedia_slug":null,"has_3d_model":false,"image_url":null,"decayed_at":null,"tle_current":{"epoch":"2026-05-25T00:15:52.846848Z","epoch_age_seconds":84798,"freshness":"FRESH","line1":"1 60284U 24132G   26145.01102832  .00000613  00000+0  32829-4 0  9994","line2":"2 60284  53.1609  45.2913 0001301  80.8599 279.2549 15.30180857103420","mean_motion":15.30180857,"eccentricity":0.0001301,"inclination_deg":53.1609,"raan_deg":45.2913,"arg_perigee_deg":80.8599,"mean_anomaly_deg":279.2549,"bstar":3.2829e-5,"rev_number":10342,"period_min":94.106522991223,"perigee_km":474.38059902215,"apogee_km":476.16385610316,"semimajor_km":6853.4092275627,"source":"CELESTRAK","updated_at":"2026-05-25T13:38:19.204748Z"}}}